Location: Isle of Man Observatory
(54.1776°N, 4.6264°W)
Time: 20:58:54
(UTC+02:00)

ISS - Visible Passes

Search period start: 25 May 2018 00:00
Search period end: 04 June 2018 00:00
Orbit: 402 x 407 km, 51.6° (Epoch: 26 May)

Date Brightness Start Highest point End Pass type
(mag) Time Alt. Az. Time Alt. Az. Time Alt. Az.
25 May -3.7 00:27:17 10° WSW 00:30:28 51° S 00:33:40 10° E visible
25 May -3.6 02:03:35 10° W 02:06:45 45° SSW 02:08:17 25° SE visible
25 May -1.6 03:40:22 10° WSW 03:40:52 12° WSW 03:40:52 12° WSW visible
25 May -3.5 23:35:14 10° WSW 23:38:23 44° SSE 23:41:31 10° E visible
26 May -3.7 01:11:26 10° W 01:14:38 52° S 01:17:15 14° ESE visible
26 May -2.4 02:47:58 10° W 02:49:50 22° SW 02:49:50 22° SW visible
27 May -3.7 00:19:16 10° W 00:22:29 55° S 00:25:42 10° ESE visible
27 May -3.2 01:55:41 10° W 01:58:41 33° SSW 01:59:03 32° S visible
27 May -3.7 23:27:08 10° WSW 23:30:19 53° S 23:33:32 10° E visible
28 May -3.4 01:03:27 10° W 01:06:35 42° SSW 01:08:20 22° SE visible
28 May -1.5 02:40:24 10° WSW 02:40:58 12° WSW 02:40:58 12° WSW visible
29 May -3.6 00:11:14 10° W 00:14:26 50° S 00:17:37 10° ESE visible
29 May -2.5 01:47:52 10° W 01:50:18 22° SW 01:50:18 22° SW visible
30 May -2.9 00:55:30 10° W 00:58:26 30° SSW 00:59:41 23° SSE visible
31 May -3.2 00:03:13 10° W 00:06:18 39° SSW 00:09:06 12° SE visible
31 May -1.7 01:40:21 10° WSW 01:41:43 14° SW 01:41:43 14° SW visible
01 Jun -2.2 00:47:40 10° W 00:50:09 20° SSW 00:51:09 18° S visible
01 Jun -2.6 23:55:13 10° W 23:58:04 28° SSW 00:00:36 12° SSE visible
03 Jun -1.6 00:40:17 10° WSW 00:41:44 12° SW 00:42:43 11° SSW visible
03 Jun -1.9 23:47:22 10° WSW 23:49:41 18° SSW 23:51:59 10° SSE visible
